EW4350 Weather Reports


time (UTC)temp
C
wind
direction
speed
KPH
gust
KPH
rain 1hr
cm
rain 24hr
cm
rain mn
cm
humidity
%
barometer
mb
20260507151504 12 11 11.3 22.5 0.33 2.49 2.49 93 1011.0
20260507151004 13 11 9.7 24.1 0.25 2.41 2.41 93 1011.4
20260507150505 13 11 11.3 24.1 0.20 2.34 2.34 93 1011.4
20260507150005 13 11 12.9 25.7 0.15 2.29 2.29 93 1011.4
20260507144505 13 11 9.7 24.1 0.05 2.18 2.18 92 1010.9
20260507144004 13 11 8.0 20.9 0.05 2.18 2.18 92 1010.9
20260507143505 13 11 8.0 17.7 0.03 2.16 2.16 92 1011.0
20260507143005 13 11 8.0 20.9 0.03 2.16 2.16 92 1010.9
20260507142505 14 11 9.7 20.9 0.03 2.16 2.16 92 1010.8
20260507142005 14 12 9.7 20.9 0.03 2.16 2.16 92 1010.7
20260507141004 14 11 9.7 25.7 0.03 2.16 2.16 94 1010.7
20260507140505 15 11 9.7 19.3 0.00 2.13 2.13 94 1010.5
20260507140005 15 11 9.7 20.9 0.03 2.13 2.13 94 1010.5
20260507134505 15 13 3.2 16.1 0.08 2.13 2.13 95 1010.5
20260507133504 15 13 8.0 19.3 0.08 2.13 2.13 95 1010.4
20260507132504 15 12 9.7 19.3 0.10 2.13 2.13 94 1010.2
20260507132004 15 11 9.7 19.3 0.10 2.13 2.13 94 1010.4
20260507131504 15 11 9.7 20.9 0.13 2.13 2.13 94 1010.2
20260507130005 15 12 11.3 20.9 0.18 2.11 2.11 95 1010.6
20260507125504 15 11 11.3 24.1 0.15 2.08 2.08 94 1010.7
20260507125004 15 11 9.7 24.1 0.15 2.06 2.06 95 1010.8
20260506203504 26 16 9.7 27.4 0.00 0.00 0.00 59 1009.7
20260506203004 26 17 9.7 25.7 0.00 0.00 0.00 58 1009.8
20260506201504 26 183 9.7 22.5 0.00 0.00 0.00 61 1010.2
20260506201003 26 196 9.7 27.4 0.00 0.00 0.00 62 1010.2
20260506200004 26 196 9.7 24.1 0.00 0.00 0.00 63 1010.5
20260506195504 26 200 11.3 29.0 0.00 0.00 0.00 63 1010.6
20260506195004 26 201 9.7 29.0 0.00 0.00 0.00 63 1010.7
20260506194504 26 204 8.0 22.5 0.00 0.00 0.00 63 1010.7
20260506194004 26 196 9.7 19.3 0.00 0.00 0.00 63 1010.9
20260506192004 26 194 9.7 22.5 0.00 0.00 0.00 63 1011.0
20260506191504 25 193 9.7 20.9 0.00 0.00 0.00 64 1011.0
20260506191004 25 192 8.0 20.9 0.00 0.00 0.00 64 1011.1
20260506190504 25 192 9.7 22.5 0.00 0.00 0.00 65 1011.0
20260506190006 25 189 9.7 24.1 0.00 0.00 0.00 64 1011.1
20260506185504 25 188 9.7 30.6 0.00 0.00 0.00 64 1011.2
20260506185004 25 192 11.3 30.6 0.00 0.00 0.00 64 1011.3
20260506184504 25 187 11.3 30.6 0.00 0.00 0.00 64 1011.3
20260506184004 25 181 9.7 27.4 0.00 0.00 0.00 64 1011.2
20260506183504 25 181 9.7 24.1 0.00 0.00 0.00 64 1011.2
20260506182504 25 183 9.7 22.5 0.00 0.00 0.00 64 1011.4
20260506181504 25 187 11.3 30.6 0.00 0.00 0.00 64 1011.5
20260506181004 25 188 11.3 30.6 0.00 0.00 0.00 64 1011.8
20260506180504 25 186 9.7 29.0 0.00 0.00 0.00 64 1011.9
20260506180005 25 186 9.7 45.1 0.00 0.00 0.00 64 1012.0
20260506175504 25 188 11.3 45.1 0.00 0.00 0.00 63 1012.0
20260506175004 25 189 9.7 29.0 0.00 0.00 0.00 64 1012.1
20260506174505 25 187 11.3 29.0 0.00 0.00 0.00 64 1012.1
20260506174004 24 190 9.7 24.1 0.00 0.00 0.00 64 1012.4
20260506173504 24 189 9.7 20.9 0.00 0.00 0.00 65 1012.5
20260506173004 24 174 9.7 29.0 0.00 0.00 0.00 65 1012.5
20260506172503 24 38 9.7 29.0 0.00 0.00 0.00 65 1012.4
20260506172004 24 19 8.0 24.1 0.00 0.00 0.00 66 1012.6
20260506171504 23 18 8.0 24.1 0.00 0.00 0.00 66 1012.8
20260506171004 23 17 6.4 20.9 0.00 0.00 0.00 67 1012.7
20260506170503 23 16 8.0 19.3 0.00 0.00 0.00 68 1012.7
20260506170004 23 16 8.0 19.3 0.00 0.00 0.00 68 1012.7
20260506165504 23 15 9.7 19.3 0.00 0.00 0.00 68 1012.8
20260506165005 23 16 9.7 24.1 0.00 0.00 0.00 68 1012.8
20260506164504 23 17 8.0 24.1 0.00 0.00 0.00 69 1012.9
20260506164004 23 17 8.0 25.7 0.00 0.00 0.00 70 1012.8
20260506163504 23 15 8.0 25.7 0.00 0.00 0.00 70 1012.8
20260506163005 22 14 8.0 22.5 0.00 0.00 0.00 70 1012.9
20260506162504 22 15 8.0 19.3 0.00 0.00 0.00 70 1013.1
20260506161504 22 15 6.4 19.3 0.00 0.00 0.00 71 1013.3
20260506161003 22 14 8.0 22.5 0.00 0.00 0.00 71 1013.3
20260506160504 22 14 9.7 22.5 0.00 0.00 0.00 71 1013.4
20260506160004 22 15 9.7 22.5 0.00 0.00 0.00 71 1013.4
20260506155504 22 15 9.7 27.4 0.00 0.00 0.00 71 1013.5
20260506154504 22 15 11.3 30.6 0.00 0.00 0.00 70 1013.8
20260506154004 22 14 9.7 30.6 0.00 0.00 0.00 70 1014.0
20260506153504 22 14 9.7 29.0 0.00 0.00 0.00 69 1014.1
20260506153004 22 14 11.3 27.4 0.00 0.00 0.00 69 1014.1